sat.trackr.live / text

‹ back to catalog

ONEWEB-0039

NORAD 45146 · 2020-008R

PAYLOAD ACTIVE UNKNOWN

§ Identity

Operator
Country
UK
Launch date
2020-02-06
Launch site
TYMSC
Launch vehicle
Mass (kg)
RCS (m²)

Purposes: comms

External: N2YO · Heavens-Above · Gunter

§ Orbital elements

Epoch: 2026-09-20T02:53:59.610048Z

Period
109.89 min
Inclination
87.8908°
Eccentricity
0.0002267
Mean motion
13.10374497 rev/d
Perigee alt
1,220.0 km
Apogee alt
1,223.4 km
Semi-major
7,599.8 km
B*
-1.7488e-3
RAAN
17.3692°
Arg perigee
101.1594°
Mean anomaly
258.9788°
Rev number
32,059

§ Raw data

ONEWEB-00391 45146U 20008R   26263.12082882 -.00000598  00000+0 -17488-2 0  99932 45146  87.8908  17.3692 0002267 101.1594 258.9788 13.10374497320593

JSON: /api/v1/satellites/45146 · /tle

For live sub-satellite position, see the globe view (requires WebGL).

§ Visibility from observer

Set your observer location to see the next 7 days of passes ≥ 10°. The values pass through the URL so the page stays shareable.

No JS? Fill the form by hand. The geolocation button needs JavaScript.